GW5385 Weather Reports


Display with metric or nautical units.
time (UTC)temp
F
wind
direction
speed
MPH
gust
MPH
rain 1hr
in
rain 24hr
in
rain mn
in
humidity
%
barometer
mb
20260509034501 59 23 1.0 3.0 0.00 0.00 0.00 33 1012.3
20260509033100 59 333 2.0 5.0 0.00 0.00 0.00 32 1012.2
20260509031603 60 330 3.0 6.0 0.00 0.00 0.00 31 1011.8
20260509030057 61 4 2.0 4.0 0.00 0.00 0.00 31 1011.4
20260509024558 62 353 3.0 6.0 0.00 0.00 0.00 30 1011.2
20260509023055 64 355 3.0 6.0 0.00 0.00 0.00 29 1010.9
20260509021554 66 32 6.0 11.0 0.00 0.00 0.00 27 1010.9
20260509020033 67 13 8.0 12.0 0.00 0.00 0.00 26 1010.8
20260509014523 68 27 7.0 12.0 0.00 0.00 0.00 26 1010.8
20260509013020 69 23 7.0 15.0 0.00 0.00 0.00 25 1010.8
20260509011520 69 1 9.0 15.0 0.00 0.00 0.00 24 1010.7
20260509010025 70 353 8.0 16.0 0.00 0.00 0.00 24 1010.6
20260509004531 70 328 9.0 17.0 0.00 0.00 0.00 24 1010.7
20260509003118 71 328 8.0 19.0 0.00 0.00 0.00 23 1010.7
20260509001547 71 335 9.0 17.0 0.00 0.00 0.00 23 1010.6
20260509000049 72 310 10.0 17.0 0.00 0.00 0.00 22 1010.7
20260509000046 72 347 10.0 17.0 0.00 0.00 0.00 22 1010.7
20260508234550 73 314 8.0 18.0 0.00 0.00 0.00 21 1010.7
20260508233049 72 321 7.0 12.0 0.00 0.00 0.00 21 1010.6
20260508231611 73 303 7.0 14.0 0.00 0.00 0.00 21 1010.5
20260508230056 74 299 7.0 16.0 0.00 0.00 0.00 20 1010.6
20260508224540 74 307 9.0 19.0 0.00 0.00 0.00 20 1010.6
20260508223044 75 326 8.0 15.0 0.00 0.00 0.00 20 1010.6
20260508221540 75 287 7.0 16.0 0.00 0.00 0.00 19 1010.6
20260508220040 75 332 8.0 15.0 0.00 0.00 0.00 20 1010.7
20260508214545 75 340 9.0 18.0 0.00 0.00 0.00 20 1010.7
20260508213033 75 326 9.0 19.0 0.00 0.00 0.00 20 1010.7
20260508211539 75 304 8.0 18.0 0.00 0.00 0.00 21 1010.7
20260508210032 75 326 7.0 15.0 0.00 0.00 0.00 21 1010.8
20260508204528 75 319 8.0 16.0 0.00 0.00 0.00 20 1010.9
20260508203028 75 300 6.0 15.0 0.00 0.00 0.00 21 1010.9
20260508201526 75 306 5.0 14.0 0.00 0.00 0.00 22 1010.9
20260508200026 75 316 6.0 11.0 0.00 0.00 0.00 21 1010.9
20260508194520 74 283 6.0 16.0 0.00 0.00 0.00 21 1011.0
20260508193019 75 316 7.0 15.0 0.00 0.00 0.00 22 1011.1
20260508191530 73 272 8.0 14.0 0.00 0.00 0.00 24 1011.2
20260508190018 72 285 3.0 12.0 0.00 0.00 0.00 28 1011.7
20260508184541 72 264 5.0 11.0 0.00 0.00 0.00 28 1011.8
20260508183039 72 255 4.0 10.0 0.00 0.00 0.00 29 1012.1
20260508181505 72 290 4.0 8.0 0.00 0.00 0.00 29 1012.4
20260508180003 71 302 5.0 11.0 0.00 0.00 0.00 29 1012.5
20260508174611 70 276 5.0 11.0 0.00 0.00 0.00 31 1012.6
20260508173056 69 312 4.0 12.0 0.00 0.00 0.00 32 1012.8
20260508171552 68 250 3.0 10.0 0.00 0.00 0.00 36 1012.9
20260508170048 67 336 4.0 9.0 0.00 0.00 0.00 37 1013.2
20260508164544 66 277 5.0 11.0 0.00 0.00 0.00 42 1013.1
20260508163041 65 257 4.0 8.0 0.00 0.00 0.00 44 1013.4
20260508161537 64 278 3.0 9.0 0.00 0.00 0.00 47 1013.5
20260508160033 62 296 2.0 8.0 0.00 0.00 0.00 49 1013.7
20260508154528 61 231 5.0 9.0 0.00 0.00 0.00 52 1013.7
20260508153024 60 285 4.0 11.0 0.00 0.00 0.00 53 1014.0
20260508151520 58 273 3.0 7.0 0.00 0.00 0.00 56 1014.1
20260508150021 57 265 4.0 9.0 0.00 0.00 0.00 59 1014.3
20260508144513 56 227 4.0 6.0 0.00 0.00 0.00 59 1014.3
20260508143013 55 248 2.0 7.0 0.00 0.00 0.00 62 1014.5
20260508141505 53 262 2.0 10.0 0.00 0.00 0.00 65 1014.6
20260508140109 50 238 3.0 7.0 0.00 0.00 0.00 66 1014.5
20260508134606 48 236 3.0 7.0 0.00 0.00 0.00 68 1014.6
20260508133057 47 228 1.0 4.0 0.00 0.00 0.00 69 1014.6
20260508131555 45 161 0.0 0.0 0.00 0.00 0.00 70 1014.5
20260508130054 44 165 0.0 1.0 0.00 0.00 0.00 70 1014.5
20260508124524 42 323 0.0 1.0 0.00 0.00 0.00 75 1014.5
20260508123024 39 298 0.0 2.0 0.00 0.00 0.00 77 1014.5
20260508121552 39 296 0.0 1.0 0.00 0.00 0.00 76 1014.4
20260508120051 39 295 0.0 2.0 0.00 0.00 0.00 76 1014.4
20260508114551 41 296 1.0 1.0 0.00 0.00 0.00 73 1014.6
20260508113044 43 295 0.0 2.0 0.00 0.00 0.00 73 1014.6
20260508111556 42 343 1.0 4.0 0.00 0.00 0.00 74 1014.6
20260508110037 41 355 0.0 2.0 0.00 0.00 0.00 72 1014.6
20260508104537 43 311 0.0 2.0 0.00 0.00 0.00 68 1014.6
20260508103036 44 297 0.0 1.0 0.00 0.00 0.00 67 1014.8
20260508101532 46 306 0.0 3.0 0.00 0.00 0.00 65 1014.8
20260508100031 46 299 0.0 3.0 0.00 0.00 0.00 64 1014.9
20260508094530 46 300 1.0 4.0 0.00 0.00 0.00 64 1014.7
20260508093028 47 331 1.0 4.0 0.00 0.00 0.00 62 1014.8
20260508091527 44 300 1.0 3.0 0.00 0.00 0.00 66 1014.8
20260508090026 43 307 0.0 2.0 0.00 0.00 0.00 66 1014.8
20260508084525 41 49 0.0 2.0 0.00 0.00 0.00 66 1014.9
20260508083021 42 95 0.0 2.0 0.00 0.00 0.00 61 1014.7
20260508081519 44 302 0.0 2.0 0.00 0.00 0.00 59 1014.6
20260508080018 46 280 1.0 4.0 0.00 0.00 0.00 56 1014.8
20260508074518 46 301 0.0 3.0 0.00 0.00 0.00 57 1014.7
20260508073050 46 301 2.0 4.0 0.00 0.00 0.00 58 1014.6
20260508071546 46 300 0.0 3.0 0.00 0.00 0.00 56 1014.7
20260508070043 49 342 1.0 4.0 0.00 0.00 0.00 54 1014.7
20260508064541 48 283 2.0 5.0 0.00 0.00 0.00 57 1014.6
20260508063038 45 330 0.0 5.0 0.00 0.00 0.00 62 1014.6
20260508061538 43 257 0.0 0.0 0.00 0.00 0.00 65 1014.5
20260508060031 43 333 0.0 0.0 0.00 0.00 0.00 63 1014.5
20260508054530 45 60 0.0 0.0 0.00 0.00 0.00 63 1014.5
20260508053031 46 62 1.0 2.0 0.00 0.00 0.00 60 1014.5
20260508051531 46 62 1.0 4.0 0.00 0.00 0.00 61 1014.5
20260508050025 46 295 0.0 2.0 0.00 0.00 0.00 60 1014.3
20260508044525 47 302 0.0 1.0 0.00 0.00 0.00 58 1014.4
20260508043125 50 298 0.0 2.0 0.00 0.00 0.00 56 1014.4
20260508041523 52 295 0.0 3.0 0.00 0.00 0.00 54 1014.4
20260508040022 53 282 0.0 2.0 0.00 0.00 0.00 53 1014.4